OBJECT H, 69579

Orbit data source: Space-Track

You're viewing an Uncataloged Satellite

Recently launched and/or uncataloged satellites may have evolving metadata. Metadata may include but not limited to: Owner, Maufacturer, Bus, Motor, and Mission.

OBJECT H, 69579 is a satellite owned by Zhongguo Xingwang (CN) in LEO that was launched on Wed, 17 Jun 2026 UTC via a CHANG ZHENG 12 launch vehicle from the Wenchang Satellite Launch Center (WSC). Unknown objects in Earth's orbit typically refer to objects detected orbiting the Earth but have not yet been identified or cataloged. These objects could be anything from previously untracked satellites, spent rocket stages, debris from satellite collisions, or even natural meteoroids temporarily captured by Earth's gravity.

Loading next visibility...
Identifier
69579, 2026-137H
Orbit
LEO
Country
Flag of CNCN / PRC
Related business
Manufacturer
YINNT
Mission
Operational spacecraft
Bus & Motor
XINGWANG Y, Unknown motor
Mass
~800 kg wet, ~800 kg dry
Launch date (UTC)
2026-06-17 (2 days ago)
Launch vehicle
CHANG ZHENG 12
Launch site
Wenchang Satellite Launch Center (WSC)
Object type
Unknown
Shape & HBR
Unknown
Radar Cross Section
RCS unknown

Expand to show TLE details & history
Last TLE update: 17 hours ago

TLE from 17 hours ago
0 OBJECT H
1 69579U 26137H   26170.09633212 -.00000119  00000-0  21614-4 0  9997
2 69579  50.0022 247.7935 0010037 239.2192 120.7720 13.92663556   299
Epoch: 2026-06-19T02:18Z
TLE epoch observation values (Epoch: 2026-06-19T02:18:43.095Z)
Latitude
0.00001°
Longitude
-54.21627°
Altitude
923.586 km
Speed
7.389 km/s
True Right ascension
16h 31m 10s
True Declination
0° 00' 00"
Sunlit
Object was in full shadow at epoch
Visualization orbit readout
Latitude
Unknown
Longitude
Unknown
Altitude
Unknown
Speed
Unknown
Apparent Right ascension
Unknown
Apparent Declination
Unknown
Sunlit
N/A
Visualization observer readout
Local Sidereal Time
05:55:17
Azimuth
Unknown
Elevation
Unknown
Doppler factor
Unknown
Orbital elements
Apogee altitude
927.364 km
Perigee altitude
912.713 km
Semi-major axis
7,298.175 km
Eccentricity
0.001
Inclination
50.0022°
RAAN
247.7935°
Arg. of periapsis
239.2192°
True anomaly
120.87076°
Mean anomaly
120.772°
Eccentric anomaly
120.82139°
Mean motion
3.48114 °/min
Orbital period
103.41 mins
BSTAR
0.000021614
Loading maneuver chart data...
Computing Atmospheric mass density...
Loading historical data...
Loading historical data...
Loading historical data...
Loading historical data...
Loading historical data...
Loading historical data...
Loading historical data...

Documentation

Showing up to 5 results
|